Location: Allie Creek
(37.5926°N, 89.8526°W)
Time: 01:09:38
(UTC+00:00)

USA 81 - Pass Details

Date: 29 April 2024
Orbit: 784 x 786 km, 85.0° (Epoch: 24 May)

Event Time Altitude Azimuth Distance (km) Brightness Sun altitude
Exits shadow 01:25:03 - 129° (SE) 2,469 6.0 -7.7°
Reaches altitude 10° 01:25:32 10° 126° (SE) 2,340 5.9 -7.8°
Maximum altitude 01:29:06 19° 82° (E) 1,805 5.5 -8.5°
Drops below altitude 10° 01:32:42 10° 39° (NE) 2,350 6.4 -9.1°
Sets 01:35:41 0° 22° (NNE) 3,283 7.3 -9.6°
